Regional Weather Roundup
Issued by NWS

Home | Current Version | Previous Version | Graphics & Text | Print | Product List | Glossary Off
Versions: 1 2 3 4 5 6 7 8 9 10 11 12 13 14 15 16 17 18 19 20 21 22 23 24 25 26 27 28 29 30 31 32 33 34 35 36 37 38 39 40 41 42 43 44 45 46 47 48 49 50

000
ASUS43 KTOP 232359
RWRKS

WEATHER ROUNDUP FOR KANSAS
NATIONAL WEATHER SERVICE GOODLAND KS
600 PM CST MON JAN 23 2017

NOTE:  "FAIR" INDICATES FEW OR NO CLOUDS BELOW 12,000 FEET WITH NO
SIGNIFICANT WEATHER AND/OR OBSTRUCTIONS TO VISIBILITY.

KSZ001>006-013>018-027>032-041>047-240100-
NORTHWEST KANSAS

CITY           SKY/WX    TMP DP  RH WIND       PRES   REMARKS
GOODLAND       CLEAR     43  30  60 E8        29.53F
6HR MIN TEMP:  43; 6HR MAX TEMP:  58;

HAYS           CLEAR     48  34  58 SE12      29.61S
HILL CITY      CLEAR     48  33  56 SE7       29.59S
6HR MIN TEMP:  48; 6HR MAX TEMP:  58;

RUSSELL        CLEAR     46  34  62 SE13      29.63R
6HR MIN TEMP:  46; 6HR MAX TEMP:  55;

$$

KSZ061>065-074>080-084>089-240100-
SOUTHWEST KANSAS

CITY           SKY/WX    TMP DP  RH WIND       PRES   REMARKS
DODGE CITY     CLEAR     52  34  50 S13       29.58F
6HR MIN TEMP:  49; 6HR MAX TEMP:  61;

GARDEN CITY    CLEAR     53  35  50 E5        29.58S
6HR MIN TEMP:  46; 6HR MAX TEMP:  59;

GREAT BEND     CLEAR     49  35  58 S12       29.63R
LIBERAL          N/A     57  28  33 W12       29.59S
$$

KSZ066>073-081>083-090>101-240100-
SOUTHEAST KANSAS

CITY           SKY/WX    TMP DP  RH WIND       PRES   REMARKS
CHANUTE        CLEAR     45  33  63 SE7       29.78F
6HR MIN TEMP:  45; 6HR MAX TEMP:  52;

COFFEYVILLE    CLEAR     46  35  65 SE7       29.80F
6HR MIN TEMP:  46; 6HR MAX TEMP:  54;

HUTCHINSON     CLEAR     48  33  56 SE14      29.68F
6HR MIN TEMP:  48; 6HR MAX TEMP:  54;

MEDICINE LODGE   N/A     50  35  56 SE9       29.65F
NEWTON         CLEAR     46  33  60 SE8       29.72S
PARSONS        CLEAR     47  37  68 SE3       29.80S
6HR MIN TEMP:  46; 6HR MAX TEMP:  53;

WICHITA INTL   PTCLDY    49  33  54 SE10      29.71F
6HR MIN TEMP:  47; 6HR MAX TEMP:  55;

WICHITA JABRA  CLEAR     48  33  56 S9        29.71F
6HR MIN TEMP:  48; 6HR MAX TEMP:  54;

WINFIELD       CLEAR     51  31  46 SE8       29.74F
6HR MIN TEMP:  49; 6HR MAX TEMP:  57;

$$

KSZ007>012-019>026-033>040-048>060-102>105-240100-
NORTHEAST KANSAS

CITY           SKY/WX    TMP DP  RH WIND       PRES   REMARKS
CONCORDIA      CLEAR     44  31  60 SE10      29.70R
6HR MIN TEMP:  44; 6HR MAX TEMP:  53;

EMPORIA        CLEAR     46  33  60 SE12      29.75S
6HR MIN TEMP:  46; 6HR MAX TEMP:  55;

LAWRENCE       CLEAR     37  32  82 NE7       29.82F
6HR MIN TEMP:  34; 6HR MAX TEMP:  42;

MANHATTAN      CLEAR     42  35  76 E8        29.74S
6HR MIN TEMP:  42; 6HR MAX TEMP:  55;

OLATHE IND     CLEAR     38  33  82 E6        29.82F
6HR MIN TEMP:  33; 6HR MAX TEMP:  43;

OLATHE EXE     CLEAR     38  33  82 E6        29.82S
6HR MIN TEMP:  33; 6HR MAX TEMP:  43;

SALINA         CLEAR     48  32  53 SE12      29.71S
6HR MIN TEMP:  48; 6HR MAX TEMP:  55;

TOPEKA BILLARD CLEAR     37  32  82 E9        29.80F
6HR MIN TEMP:  33; 6HR MAX TEMP:  43;

TOPEKA FORBES  CLEAR     38  33  82 E10       29.78F WCI  31
6HR MIN TEMP:  34; 6HR MAX TEMP:  47;

$$




USA.gov is the U.S. government's official web portal to all federal, state and local government web resources and services.